« Back
NWS Peachtree City, Ga » Text Product » GA Regional Weather Roundup


Printer-friendly Version
Current Version              Previous Versions:   1  2  3  4  5  6  7  8  9  

Regional Weather Roundup

118
ASUS42 KFFC 011203
RWRGA
WEATHER ROUNDUP FOR GEORGIA
NATIONAL WEATHER SERVICE PEACHTREE CITY GA
800 AM EDT SAT NOV 01 2014

NOTE: "FAIR" INDICATES FEW OR NO CLOUDS BELOW 12,000 FEET WITH NO
SIGNIFICANT WEATHER AND/OR OBSTRUCTIONS TO VISIBILITY.

* = USE WITH CAUTION. THE STATIONS MARKED WITH AN ASTERISK MAY NOT
REPORT WEATHER SUCH AS PRECIPITATION, FOG, OR THUNDER AND ARE NOT
QUALITY CONTROLLED BY NWS.

THE REMARK "TC" DENOTES TEMPERATURE READING IN DEGREES CELSIUS.

GAZ001>058-011300-
NORTH GEORGIA

CITY           SKY/WX    TMP DP  RH WIND       PRES   REMARKS
ATLANTA        CLOUDY    40  27  59 NW25G40   29.95R WCI  29
6HR MIN TEMP:  38; 6HR MAX TEMP:  40; 6HR PCP: TRACE;

ATHENS         MOCLDY    39  29  67 NW12G18   29.86R WCI  32
6HR MIN TEMP:  38; 6HR MAX TEMP:  42; 6HR PCP: TRACE;

CHAMBLEE       PTCLDY    38  27  64 NW21G38   29.95R WCI  28
6HR MIN TEMP:  38; 6HR MAX TEMP:  39;

PEACHTREE CITY CLOUDY    41  27  57 NW15G31   29.99R
6HR MIN TEMP:  38; 6HR MAX TEMP:  41;

ROME           CLOUDY    39  29  67 N16G22    30.07R WCI  30
6HR MIN TEMP:  39; 6HR MAX TEMP:  41;

WEST ATLANTA   CLOUDY    39  27  62 NW16G31   29.98R WCI  30
6HR MIN TEMP:  38; 6HR MAX TEMP:  40; 6HR PCP: TRACE;

GAINESVILLE    CLOUDY    38  27  64 NW14G26   29.89R WCI  30
6HR MIN TEMP:  36; 6HR MAX TEMP:  39;

CARTERSVILLE   CLOUDY    39  27  62 NW8       30.04R WCI  33
6HR MIN TEMP:  39; 6HR MAX TEMP:  40;



CITY           SKY/WX    TMP DP  RH WIND       PRES   REMARKS
DALTON*        CLOUDY    37  32  81 NW17G26   30.05R WCI  28
LAWRENCEVILLE* MOCLDY    37  25  60 NW13G26   29.88S WCI  29
MARIETTA       CLOUDY    38  29  68 NW24G35   29.96R WCI  27
KENNESAW*      CLOUDY    37  27  65 N12G24    30.00R WCI  30
$$

GAZ059>098-102>109-011300-
CENTRAL GEORGIA

CITY           SKY/WX    TMP DP  RH WIND       PRES   REMARKS
AUGUSTA-BUSH   LGT RAIN  38  35  89 W16G23    29.81S WCI  29
6HR MIN TEMP:  38; 6HR MAX TEMP:  53; 6HR PCP:  0.03;

AUGUSTA-DANIEL LGT RAIN  38  35  89 W15G25    29.80S WCI  29
6HR MIN TEMP:  38; 6HR MAX TEMP:  53; 6HR PCP:  0.07;

COLUMBUS       CLEAR     37  26  64 NW12      30.05R WCI  29
6HR MIN TEMP:  37; 6HR MAX TEMP:  42;

MACON          CLOUDY    38  27  64 W14       29.95R WCI  30
6HR MIN TEMP:  37; 6HR MAX TEMP:  43;

ROBINS AFB     CLOUDY    40  28  61 W18G28    29.95R WCI  31


CITY           SKY/WX    TMP DP  RH WIND       PRES   REMARKS
LAGRANGE*      MOCLDY    41  32  68 NW16G22   30.04R
SYLVANIA*      CLOUDY    48  38  68 W10G18    29.82F
MILLEDGEVILLE* LGT RAIN  43  32  65 W12G23    29.90R
$$

GAZ099>101-110>166-011300-
SOUTH GEORGIA

CITY           SKY/WX    TMP DP  RH WIND       PRES   REMARKS
SAVANNAH       PTCLDY    43  27  53 W16G26    29.84S
6HR MIN TEMP:  43; 6HR MAX TEMP:  55;

VALDOSTA       CLEAR     39  50 100 VRB6      30.03R WCI  35
6HR MIN TEMP:  39; 6HR MAX TEMP:  54;

ALMA           CLEAR     40  26  57 W14G24    29.94S WCI  32
6HR MIN TEMP:  40; 6HR MAX TEMP:  55;

ST SIMONS      CLEAR     43  27  53 W12G30    29.92R
6HR MIN TEMP:  43; 6HR MAX TEMP:  57; 6HR PCP: TRACE;

FT STEWART     CLEAR     41  27  55 W17G24    29.86S
ALBANY         CLEAR     40  26  57 W12G20    30.07R WCI  33
HUNTER AFB     CLEAR     41  28  58 W21G26    29.82S
MOODY AFB      CLEAR     40  26  57 W13G21    30.01R WCI  33
BRUNSWICK      CLEAR     43  28  56 W10G20    29.92S


CITY           SKY/WX    TMP DP  RH WIND       PRES   REMARKS
BAINBRIDGE*    CLEAR     41  32  70 W10       30.11R
MOULTRIE*      CLEAR     39  30  70 W10G17    30.05R WCI  32
VIDALIA*       PTCLDY    41  32  70 W10G17    29.89S
WAYCROSS*      CLEAR     44  30  58 NW12G17   29.96R
DOUGLAS*       CLEAR     43  28  56 W16       29.98S
$$



USA.gov is the U.S. government's official web portal to all federal, state and local government web resources and services.